Location: Del Amo
(33.8464°N, 118.2104°W)
Time: 16:36:17
(UTC+00:00)

SR - Pass Details

Date: 20 September 2024
Orbit: 577 x 856 km, 66.7° (Epoch: 11 October)

Event Time Altitude Azimuth Distance (km) Brightness Sun altitude
Rises 04:27:10 0° 343° (NNW) 2,987 ? -31.8°
Reaches altitude 10° 04:29:34 10° 353° (N) 2,116 ? -32.3°
Enters shadow 04:30:35 16° 359° (N) 1,775 ? -32.5°
